Fairhope, AL

6:12 PM CDT on June 20, 2018 (GMT -0500)
Fairhope

Weather History for KCQF - August, 2017

Change the Weather History Date:

Sunday, August 13, 2017

  Actual Average (KBFM) Record (KBFM)
Temperature  
Mean Temperature 80 °F -  
Max Temperature 87 °F 87 °F 93 °F (2007)
Min Temperature 73 °F 72 °F 64 °F (2004)
Cooling Degree Days 15    
Growing Degree Days 30 (Base 50)    
Moisture  
Dew Point 77 °F    
Average Humidity 89    
Maximum Humidity 100    
Minimum Humidity 66    
Precipitation  
Precipitation 0.00 in - - ()
Sea Level Pressure  
Sea Level Pressure 29.94 in    
Wind  
Wind Speed 1 mph (West)    
Max Wind Speed 7 mph    
Max Gust Speed -    
Visibility 10 miles    
Events      
Averages and records for this station are not official NWS values.
T = Trace of Precipitation, MM = Missing Value Source: NWS Daily Summary

Daily Weather History Graph

Daily Weather History Graph

Search for Another Location

Airport or City:

Astronomy

Aug. 13, 2017 Rise Set
Actual Time 6:17 AM CDT 7:34 PM CDT
Civil Twilight 5:51 AM CDT 8:00 PM CDT
Nautical Twilight 5:21 AM CDT 8:30 PM CDT
Astronomical Twilight 4:50 AM CDT 9:01 PM CDT
Moon 11:35 PM CDT (8/13) 11:52 AM CDT (8/13)
Length of Visible Light 14h 08m
Length of Day
13h 17m
Waning Gibbous, 65% of the Moon is Illuminated
Aug 13
Waning Gibbous
Aug 14
Last Quarter
Aug 21
New
Aug 29
First Quarter
Sep 6
Full

Hourly Weather History & Observations

Time (CDT) Temp. Heat Index Dew Point Humidity Pressure Visibility Wind Dir Wind Speed Gust Speed Precip Events Conditions
12:15 AM 75.2 °F - 75.2 °F 100% 29.95 in 10.0 mi Calm Calm - N/A   Clear
12:35 AM 75.2 °F - 75.2 °F 100% 29.94 in 10.0 mi Calm Calm - N/A   Clear
12:55 AM 73.4 °F - 73.4 °F 100% 29.93 in 10.0 mi Calm Calm - N/A   Clear
1:15 AM 73.4 °F - 73.4 °F 100% 29.92 in 10.0 mi Calm Calm - N/A   Clear
1:35 AM 73.4 °F - 73.4 °F 100% 29.92 in 10.0 mi Calm Calm - N/A   Clear
1:55 AM 73.4 °F - 73.4 °F 100% 29.92 in 10.0 mi Calm Calm - N/A   Clear
2:15 AM 73.4 °F - 73.4 °F 100% 29.91 in 10.0 mi Calm Calm - N/A   Clear
2:35 AM 73.4 °F - 73.4 °F 100% 29.91 in 10.0 mi Calm Calm - N/A   Clear
2:55 AM 73.4 °F - 73.4 °F 100% 29.91 in 10.0 mi Calm Calm - N/A   Clear
3:15 AM 73.4 °F - 73.4 °F 100% 29.90 in 10.0 mi Calm Calm - N/A   Clear
3:35 AM 73.4 °F - 73.4 °F 100% 29.91 in 10.0 mi Calm Calm - N/A   Clear
3:55 AM 73.4 °F - 73.4 °F 100% 29.91 in 10.0 mi Calm Calm - N/A   Clear
4:15 AM 73.4 °F - 73.4 °F 100% 29.92 in 7.0 mi Calm Calm - N/A   Clear
4:35 AM 73.4 °F - 73.4 °F 100% 29.92 in 7.0 mi Calm Calm - N/A   Clear
4:55 AM 73.4 °F - 73.4 °F 100% 29.93 in 7.0 mi Calm Calm - N/A   Clear
5:15 AM 73.4 °F - 73.4 °F 100% 29.93 in 10.0 mi Calm Calm - N/A   Clear
5:35 AM 73.4 °F - 73.4 °F 100% 29.94 in 10.0 mi Calm Calm - N/A   Clear
5:55 AM 73.4 °F - 73.4 °F 100% 29.94 in 10.0 mi Calm Calm - N/A   Clear
6:15 AM 73.4 °F - 73.4 °F 100% 29.94 in 7.0 mi Calm Calm - N/A   Clear
6:35 AM 73.4 °F - 73.4 °F 100% 29.94 in 10.0 mi Calm Calm - N/A   Clear
6:55 AM 73.4 °F - 73.4 °F 100% 29.96 in 10.0 mi Calm Calm - N/A   Clear
7:15 AM 77.0 °F - 77.0 °F 100% 29.97 in 10.0 mi Calm Calm - N/A   Mostly Cloudy
7:35 AM 77.0 °F - 77.0 °F 100% 29.96 in 10.0 mi Calm Calm - N/A   Scattered Clouds
7:55 AM 78.8 °F - 78.8 °F 100% 29.96 in 10.0 mi NNE 4.6 mph - N/A   Clear
8:15 AM 78.8 °F - 78.8 °F 100% 29.97 in 10.0 mi Calm Calm - N/A   Clear
8:35 AM 80.6 °F 88.1 °F 78.8 °F 94% 29.97 in 10.0 mi NE 3.5 mph - N/A   Clear
8:55 AM 82.4 °F 92.4 °F 78.8 °F 89% 29.97 in 10.0 mi Calm Calm - N/A   Clear
9:15 AM 82.4 °F 92.4 °F 78.8 °F 89% 29.97 in 10.0 mi NNE 3.5 mph - N/A   Clear
9:35 AM 86.0 °F 99.3 °F 78.8 °F 79% 29.97 in 10.0 mi ENE 3.5 mph - N/A   Clear
9:55 AM 86.0 °F 99.3 °F 78.8 °F 79% 29.97 in 10.0 mi Calm Calm - N/A   Clear
10:15 AM 87.8 °F 99.7 °F 77.0 °F 70% 29.98 in 10.0 mi Calm Calm - N/A   Scattered Clouds
10:35 AM 86.0 °F 99.3 °F 78.8 °F 79% 29.98 in 10.0 mi NW 3.5 mph - N/A   Mostly Cloudy
10:55 AM 86.0 °F 96.9 °F 77.0 °F 74% 29.97 in 10.0 mi WNW 5.8 mph - N/A   Scattered Clouds
11:15 AM 86.0 °F 96.9 °F 77.0 °F 74% 29.97 in 10.0 mi West 3.5 mph - N/A   Scattered Clouds
11:35 AM 86.0 °F 96.9 °F 77.0 °F 74% 29.97 in 10.0 mi NW 4.6 mph - N/A   Scattered Clouds
11:55 AM 87.8 °F 97.6 °F 75.2 °F 66% 29.97 in 10.0 mi WNW 5.8 mph - N/A   Clear
12:15 PM 87.8 °F 99.7 °F 77.0 °F 70% 29.97 in 10.0 mi WNW 4.6 mph - N/A   Scattered Clouds
12:35 PM 87.8 °F 97.6 °F 75.2 °F 66% 29.96 in 10.0 mi WNW 4.6 mph - N/A   Scattered Clouds
12:55 PM 87.8 °F 99.7 °F 77.0 °F 70% 29.95 in 10.0 mi WNW 4.6 mph - N/A   Scattered Clouds
1:15 PM 87.8 °F 99.7 °F 77.0 °F 70% 29.95 in 10.0 mi WNW 3.5 mph - N/A   Scattered Clouds
1:35 PM 87.8 °F 99.7 °F 77.0 °F 70% 29.94 in 10.0 mi West 4.6 mph - N/A   Mostly Cloudy
1:55 PM 87.8 °F 99.7 °F 77.0 °F 70% 29.94 in 10.0 mi NW 5.8 mph - N/A   Mostly Cloudy
2:15 PM 87.8 °F 99.7 °F 77.0 °F 70% 29.93 in 10.0 mi WSW 3.5 mph - N/A   Scattered Clouds
2:35 PM 87.8 °F 99.7 °F 77.0 °F 70% 29.93 in 10.0 mi WSW 4.6 mph - N/A   Clear
2:55 PM 87.8 °F 102.5 °F 78.8 °F 75% 29.93 in 10.0 mi SW 5.8 mph - N/A   Clear
3:15 PM 87.8 °F 102.5 °F 78.8 °F 75% 29.92 in 10.0 mi SW 3.5 mph - N/A   Clear
3:35 PM 87.8 °F 102.5 °F 78.8 °F 75% 29.92 in 10.0 mi WSW 6.9 mph - N/A   Clear
3:55 PM 86.0 °F 99.3 °F 78.8 °F 79% 29.92 in 10.0 mi SW 5.8 mph - N/A   Clear
4:15 PM 87.8 °F 102.5 °F 78.8 °F 75% 29.91 in 10.0 mi SW 3.5 mph - N/A   Clear
4:35 PM 86.0 °F 99.3 °F 78.8 °F 79% 29.91 in 10.0 mi SW 4.6 mph - N/A   Clear
4:55 PM 86.0 °F 99.3 °F 78.8 °F 79% 29.92 in 10.0 mi South 4.6 mph - N/A   Clear
5:15 PM 86.0 °F 101.9 °F 80.6 °F 84% 29.92 in 10.0 mi SW 5.8 mph - N/A   Clear
5:35 PM 86.0 °F 99.3 °F 78.8 °F 79% 29.92 in 10.0 mi SW 4.6 mph - N/A   Clear
5:55 PM 86.0 °F 99.3 °F 78.8 °F 79% 29.92 in 10.0 mi SW 3.5 mph - N/A   Clear
6:15 PM 86.0 °F 99.3 °F 78.8 °F 79% 29.92 in 10.0 mi SW 5.8 mph - N/A   Clear
6:35 PM 84.2 °F 96.1 °F 78.8 °F 84% 29.91 in 10.0 mi WSW 4.6 mph - N/A   Clear
6:55 PM 82.4 °F 92.4 °F 78.8 °F 89% 29.91 in 10.0 mi Calm Calm - N/A   Clear
7:15 PM 82.4 °F 92.4 °F 78.8 °F 89% 29.91 in 10.0 mi WSW 5.8 mph - N/A   Clear
7:35 PM 82.4 °F 92.4 °F 78.8 °F 89% 29.92 in 10.0 mi WSW 4.6 mph - N/A   Clear
7:55 PM 82.4 °F 92.4 °F 78.8 °F 89% 29.92 in 10.0 mi WSW 4.6 mph - N/A   Clear
8:15 PM 82.4 °F 94.0 °F 80.6 °F 94% 29.92 in 10.0 mi SW 4.6 mph - N/A   Clear
8:35 PM 82.4 °F 94.0 °F 80.6 °F 94% 29.92 in 10.0 mi SW 3.5 mph - N/A   Scattered Clouds
8:55 PM 82.4 °F 94.0 °F 80.6 °F 94% 29.91 in 10.0 mi Calm Calm - N/A   Clear
9:15 PM 82.4 °F 94.0 °F 80.6 °F 94% 29.92 in 10.0 mi Calm Calm - N/A   Scattered Clouds
9:35 PM 82.4 °F 94.0 °F 80.6 °F 94% 29.93 in 10.0 mi Calm Calm - N/A   Clear
9:55 PM 80.6 °F 89.3 °F 80.6 °F 100% 29.93 in 10.0 mi Calm Calm - N/A   Clear
10:15 PM 78.8 °F - 78.8 °F 100% 29.94 in 10.0 mi Calm Calm - N/A   Scattered Clouds
10:35 PM 78.8 °F - 78.8 °F 100% 29.95 in 10.0 mi Calm Calm - N/A   Scattered Clouds
10:55 PM 80.6 °F 89.3 °F 80.6 °F 100% 29.95 in 10.0 mi Calm Calm - N/A   Clear
11:15 PM 78.8 °F - 78.8 °F 100% 29.95 in 10.0 mi Calm Calm - N/A   Clear
11:35 PM 78.8 °F - 78.8 °F 100% 29.94 in 10.0 mi Calm Calm - N/A   Scattered Clouds
11:55 PM 78.8 °F - 78.8 °F 100% 29.94 in 10.0 mi Calm Calm - N/A   Scattered Clouds